Regional Weather Roundup
Issued by NWS

Home | Current Version | Previous Version | Graphics & Text | Print | Product List | Glossary On
Versions: 1 2 3 4 5 6 7 8 9 10 11 12 13 14 15 16 17 18 19 20 21 22 23 24 25 26 27 28 29 30 31 32 33 34 35 36 37 38 39 40 41 42 43 44 45 46 47 48 49 50
000
ASUS45 KSLC 042110
RWRUT

UTAH REGIONAL WEATHER ROUNDUP
NATIONAL WEATHER SERVICE SALT LAKE CITY UT
200 PM MST SUN DEC 04 2016

UTZ001>011-023>025-042200-

NORTHERN UTAH

CITY           SKY/WX    TMP DP  RH WIND       PRES   REMARKS
BRIGHAM CITY     N/A     40  19  43 CALM      30.01F
HILL AFB       PTSUNNY   37  19  49 S17       29.98F WCI  27
LOGAN          CLOUDY   N/A N/A N/A N9        29.97F
OGDEN          CLOUDY    39  21  48 S12       29.99F WCI  32
SALT LAKE CITY PTSUNNY   41  21  44 E9        30.00F
TOOELE VALLEY  PTSUNNY   39  28  65 E7        29.99F WCI  34
WENDOVER       MOSUNNY   37  18  44 E6        30.00F WCI  33
HEBER CITY     CLOUDY    30  19  64 CALM      30.01F
WEST JORDAN    PTSUNNY   38  26  61 S16G23    30.01F WCI  30

$$

UTZ011>015-024>027-042200-

CENTRAL/NORTHEAST UTAH

CITY           SKY/WX    TMP DP  RH WIND       PRES   REMARKS
PROVO AIRPORT  PTSUNNY   36  22  56 CALM      30.06F
MOAB/CANYONLAN SUNNY     40  16  37 CALM      30.11F
DELTA          SUNNY     41  14  33 CALM      30.05F
PRICE          SUNNY     36  13  38 S6        30.08F WCI  31
ROOSEVELT      CLOUDY    36  16  44 CALM      30.07F
VERNAL         CLOUDY    34  15  46 E5        30.05F WCI  30

$$

UTZ013>016-019>022-027-042200-

SOUTHERN UTAH

CITY           SKY/WX    TMP DP  RH WIND       PRES   REMARKS
BRYCE CANYON   NOT AVBL
CEDAR CITY     SUNNY     51  15  23 SW12      30.06F
MILFORD        SUNNY     49  14  24 SW22      30.03F
ST GEORGE      MOCLDY    48  18  29 CALM      30.13F
HANKSVILLE     SUNNY     41  14  33 CALM      30.13F
BLANDING       SUNNY     39  13  34 S8        30.19F WCI  33

$$

REGIONAL REPORTS     COLORADO/ARIZONA

CITY           SKY/WX    TMP DP  RH WIND       PRES   REMARKS
CRAIG, CO      CLOUDY    35  13  40 SE3       30.01F
GRAND JUNCTION SUNNY     38  16  40 CALM      30.11F
RIFLE, CO      SUNNY     35  13  40 NW5       30.10F WCI  31
MONTROSE, CO   SUNNY     38  12  34 SE3       30.11F
CORTEZ, CO     SUNNY     37  20  50 W5        30.13F WCI  33
COLORADO CITY    N/A     52  14  22 S3        30.13F
PAGE, AZ       SUNNY     45  11  25 E3        30.11F
GRAND CANYON   SUNNY     48  19  31 SW7       30.13F
KINGMAN, AZ    SUNNY     60   4  10 N7        30.08F
FLAGSTAFF, AZ  SUNNY     48   3  15 E6        30.12F

$$

REGIONAL REPORTS    NEVADA/IDAHO/WYOMING

CITY           SKY/WX    TMP DP  RH WIND       PRES   REMARKS
LAS VEGAS, NV  MOSUNNY   58  11  15 E3        30.07F
ELY, NY        CLOUDY    52  13  21 CALM      30.04F
ELKO, NV       PTSUNNY   40  20  44 S7        30.00F
POCATELLO, ID  CLOUDY    38  26  62 S21G30    29.87F WCI  28
BURLEY, ID     LGT RAIN  41  35  79 SW23G30   29.88F
FORT BRIDGER,  MOCLDY    40  15  37 W22G28    29.95F WCI  29
EVANSTON, WY   CLOUDY    36  15  42 SW18G25   29.95F WCI  26
ROCK SPRINGS,  CLOUDY    35  15  44 SW14      29.91F WCI  26
KEMMERER, WY     N/A     32  18  55 W8        29.91F WCI  25

$$



USA.gov is the U.S. government's official web portal to all federal, state and local government web resources and services.